Location: Fours
(44.3167°N, 6.7000°E)
Time: 11:02:01
(UTC+00:00)

Cosmos 1980 Rocket - Pass Details

Date: 16 October 2021
Orbit: 828 x 851 km, 71.0° (Epoch: 07 December)

Event Time Altitude Azimuth Distance (km) Brightness Sun altitude
Rises 18:58:42 0° 226° (SW) 3,378 5.8 -24.2°
Reaches altitude 10° 19:01:17 10° 234° (SW) 2,452 5.1 -24.7°
Maximum altitude 19:06:33 40° 303° (WNW) 1,224 3.4 -25.6°
Drops below altitude 10° 19:11:54 10° 13° (NNE) 2,479 4.6 -26.5°
Sets 19:14:32 0° 21° (NNE) 3,421 5.3 -27.0°
